User: anonymous   Login
Location: Unspecified
(0.0000°N, 0.0000°E)
Time: 21:34:36
(UTC+00:00)
Language:

GOES 2 - Orbit

View from above orbital plane
View from above orbital plane
View from above satellite
View from above satellite

Ground track
Ground track

The orbit data is extracted from the following two-line orbital elements,

1 10061U 77048A   18048.02967053 -.00000136 +00000-0 +00000-0 0  9998
2 10061 012.9225 324.7948 0018787 330.3045 225.1135 00.99400856093278
Epoch (UTC): 17 February 2018 00:42:43
Eccentricity: 0.0018787
inclination: 12.9225°
perigee height: 35952 km
apogee height: 36112 km
right ascension of ascending node: 324.7948°
argument of perigee: 330.3045°
revolutions per day: 0.99400856
mean anomaly at epoch: 225.1135°
orbit number at epoch: 9327

The dashed part of the orbit path shows where the satellite is in the earth's shadow,  

DLR